Year,Month,Day,Hour,Minute,Value (Times are PST for windgust in km/hr)
2022,05,18,00,40,3.20
2022,05,18,00,41,3.20
2022,05,18,00,42,3.20
2022,05,18,00,43,3.20
2022,05,18,00,46,1.60
2022,05,18,01,01,1.60
2022,05,18,01,05,1.60
2022,05,18,01,06,4.80
2022,05,18,01,07,4.80
2022,05,18,01,08,3.20
2022,05,18,01,12,3.20
2022,05,18,01,13,1.60
2022,05,18,01,14,1.60
2022,05,18,01,15,1.60
2022,05,18,01,16,1.60
2022,05,18,01,17,1.60
2022,05,18,01,20,1.60
2022,05,18,01,21,1.60
2022,05,18,01,22,1.60
2022,05,18,01,23,1.60
2022,05,18,01,40,1.60
2022,05,18,01,41,3.20
2022,05,18,01,42,1.60
2022,05,18,01,43,3.20
2022,05,18,01,44,3.20
2022,05,18,01,45,4.80
2022,05,18,01,46,1.60
2022,05,18,01,47,3.20
2022,05,18,01,48,1.60
2022,05,18,01,49,3.20
2022,05,18,01,50,3.20
2022,05,18,01,51,8.10
2022,05,18,01,52,4.80
2022,05,18,01,53,6.40
2022,05,18,01,54,1.60
2022,05,18,01,56,4.80
2022,05,18,01,57,4.80
2022,05,18,01,58,4.80
2022,05,18,01,59,1.60
2022,05,18,02,06,1.60
2022,05,18,02,09,1.60
2022,05,18,02,15,3.20
2022,05,18,02,16,1.60
2022,05,18,02,19,3.20
2022,05,18,02,30,1.60
2022,05,18,02,32,1.60
2022,05,18,02,33,1.60
2022,05,18,02,35,3.20
2022,05,18,02,37,3.20
2022,05,18,02,38,4.80
2022,05,18,02,39,4.80
2022,05,18,02,40,3.20
2022,05,18,02,42,4.80
2022,05,18,02,43,3.20
2022,05,18,02,45,1.60
2022,05,18,02,46,1.60
2022,05,18,02,47,4.80
2022,05,18,02,48,4.80
2022,05,18,02,49,4.80
2022,05,18,02,50,4.80
2022,05,18,02,51,3.20
2022,05,18,02,52,3.20
2022,05,18,02,53,6.40
2022,05,18,02,54,6.40
2022,05,18,02,55,4.80
2022,05,18,02,56,4.80
2022,05,18,02,57,3.20
2022,05,18,02,58,3.20
2022,05,18,03,05,3.20
2022,05,18,03,06,1.60
2022,05,18,03,08,1.60
2022,05,18,03,15,1.60
2022,05,18,03,16,1.60
2022,05,18,03,17,4.80
2022,05,18,03,18,4.80
2022,05,18,03,19,4.80
2022,05,18,03,20,4.80
2022,05,18,03,21,4.80
2022,05,18,03,22,3.20
2022,05,18,03,23,3.20
2022,05,18,03,24,3.20
2022,05,18,03,25,3.20
2022,05,18,03,26,1.60
2022,05,18,03,27,1.60
2022,05,18,03,28,3.20
2022,05,18,03,29,1.60
2022,05,18,03,30,3.20
2022,05,18,03,31,3.20
2022,05,18,03,32,3.20
2022,05,18,03,33,3.20
2022,05,18,03,34,3.20
2022,05,18,03,35,1.60
2022,05,18,03,36,3.20
2022,05,18,03,37,1.60
2022,05,18,03,38,1.60
2022,05,18,03,40,1.60
2022,05,18,03,41,3.20
2022,05,18,03,42,3.20
2022,05,18,03,43,1.60
2022,05,18,03,44,3.20
2022,05,18,03,45,4.80
2022,05,18,03,46,4.80
2022,05,18,03,47,3.20
2022,05,18,03,48,3.20
2022,05,18,03,49,3.20
2022,05,18,03,50,3.20
2022,05,18,03,51,1.60
2022,05,18,03,52,1.60
2022,05,18,03,53,4.80
2022,05,18,03,54,3.20
2022,05,18,03,55,1.60
2022,05,18,03,56,4.80
2022,05,18,03,57,1.60
2022,05,18,03,58,1.60
2022,05,18,04,01,1.60
2022,05,18,04,06,1.60
2022,05,18,04,08,1.60
2022,05,18,04,09,1.60
2022,05,18,04,11,1.60
2022,05,18,04,13,1.60
2022,05,18,04,14,1.60
2022,05,18,04,15,1.60
2022,05,18,04,17,3.20
2022,05,18,04,18,1.60
2022,05,18,04,21,1.60
2022,05,18,04,23,1.60
2022,05,18,04,25,1.60
2022,05,18,04,37,1.60
2022,05,18,04,44,4.80
2022,05,18,04,45,4.80
2022,05,18,04,46,1.60
2022,05,18,04,47,1.60
2022,05,18,04,54,1.60
2022,05,18,05,08,1.60
2022,05,18,05,24,1.60
2022,05,18,05,28,1.60
2022,05,18,05,32,1.60
2022,05,18,05,34,1.60
2022,05,18,05,35,4.80
2022,05,18,05,36,3.20
2022,05,18,05,38,3.20
2022,05,18,05,39,3.20
2022,05,18,05,40,3.20
2022,05,18,05,41,3.20
2022,05,18,05,45,1.60
2022,05,18,05,46,1.60
2022,05,18,05,47,4.80
2022,05,18,05,48,4.80
2022,05,18,05,49,3.20
2022,05,18,05,50,1.60
2022,05,18,05,51,3.20
2022,05,18,05,55,1.60
2022,05,18,05,57,1.60
2022,05,18,05,58,3.20
2022,05,18,05,59,3.20
2022,05,18,06,00,4.80
2022,05,18,06,01,6.40
2022,05,18,06,02,4.80
2022,05,18,06,03,4.80
2022,05,18,06,04,3.20
2022,05,18,06,05,8.10
2022,05,18,06,06,8.10
2022,05,18,06,07,8.10
2022,05,18,06,08,4.80
2022,05,18,06,09,8.10
2022,05,18,06,10,9.60
2022,05,18,06,11,9.60
2022,05,18,06,12,8.10
2022,05,18,06,13,11.30
2022,05,18,06,14,8.10
2022,05,18,06,15,8.10
2022,05,18,06,16,11.30
2022,05,18,06,17,9.60
2022,05,18,06,18,3.20
2022,05,18,06,19,4.80
2022,05,18,06,20,8.10
2022,05,18,06,21,4.80
2022,05,18,06,22,6.40
2022,05,18,06,23,4.80
2022,05,18,06,25,4.80
2022,05,18,06,26,4.80
2022,05,18,06,27,4.80
2022,05,18,06,28,4.80
2022,05,18,06,34,3.20
2022,05,18,06,35,1.60
2022,05,18,06,37,1.60
2022,05,18,06,40,1.60
2022,05,18,06,41,3.20
2022,05,18,06,42,3.20
2022,05,18,06,43,3.20
2022,05,18,06,52,1.60
2022,05,18,06,53,3.20
2022,05,18,06,54,3.20
2022,05,18,06,55,1.60
2022,05,18,06,56,3.20
2022,05,18,07,00,1.60
2022,05,18,07,01,1.60
2022,05,18,07,03,3.20
2022,05,18,07,04,4.80
2022,05,18,07,05,1.60
2022,05,18,07,06,3.20
2022,05,18,07,07,4.80
2022,05,18,07,09,6.40
2022,05,18,07,10,8.10
2022,05,18,07,11,1.60
2022,05,18,07,13,3.20
2022,05,18,07,14,3.20
2022,05,18,07,15,3.20
2022,05,18,07,16,3.20
2022,05,18,07,17,8.10
2022,05,18,07,18,6.40
2022,05,18,07,19,4.80
2022,05,18,07,20,1.60
2022,05,18,07,23,1.60
2022,05,18,07,24,6.40
2022,05,18,07,25,6.40
2022,05,18,07,26,8.10
2022,05,18,07,27,8.10
2022,05,18,07,28,3.20
2022,05,18,07,29,12.90
2022,05,18,07,30,14.50
2022,05,18,07,31,14.50
2022,05,18,07,32,6.40
2022,05,18,07,33,8.10
2022,05,18,07,34,8.10
2022,05,18,07,35,6.40
2022,05,18,07,36,4.80
2022,05,18,07,37,6.40
2022,05,18,07,38,6.40
2022,05,18,07,39,6.40
2022,05,18,07,40,11.30
2022,05,18,07,41,8.10
2022,05,18,07,42,3.20
2022,05,18,07,43,8.10
2022,05,18,07,44,9.60
2022,05,18,07,45,17.70
2022,05,18,07,46,11.30
2022,05,18,07,47,16.10
2022,05,18,07,48,16.10
2022,05,18,07,49,8.10
2022,05,18,07,50,14.50
2022,05,18,07,51,16.10
2022,05,18,07,52,11.30
2022,05,18,07,53,8.10
2022,05,18,07,54,9.60
2022,05,18,07,55,11.30
2022,05,18,07,56,8.10
2022,05,18,07,57,17.70
2022,05,18,07,58,9.60
2022,05,18,07,59,17.70
2022,05,18,08,00,17.70
2022,05,18,08,01,22.50
2022,05,18,08,02,17.70
2022,05,18,08,03,30.60
2022,05,18,08,04,32.20
2022,05,18,08,05,37.00
2022,05,18,08,06,27.40
2022,05,18,08,07,24.20
2022,05,18,08,08,29.00
2022,05,18,08,09,48.30
2022,05,18,08,10,37.00
2022,05,18,08,11,16.10
2022,05,18,08,12,35.40
2022,05,18,08,13,27.40
2022,05,18,08,14,32.20
2022,05,18,08,15,32.20
2022,05,18,08,16,32.20
2022,05,18,08,17,14.50
2022,05,18,08,18,30.60
2022,05,18,08,19,25.70
2022,05,18,08,20,22.50
2022,05,18,08,21,32.20
2022,05,18,08,22,32.20
2022,05,18,08,23,33.80
2022,05,18,08,24,33.80
2022,05,18,08,25,33.80
2022,05,18,08,26,29.00
2022,05,18,08,27,27.40
2022,05,18,08,28,40.20
2022,05,18,08,29,46.70
2022,05,18,08,30,38.60
2022,05,18,08,31,32.20
2022,05,18,08,32,29.00
2022,05,18,08,33,38.60
2022,05,18,08,34,33.80
2022,05,18,08,35,35.40
2022,05,18,08,36,45.10
2022,05,18,08,37,25.70
2022,05,18,08,38,22.50
2022,05,18,08,39,29.00
2022,05,18,08,40,32.20
2022,05,18,08,41,32.20
2022,05,18,08,42,30.60
2022,05,18,08,43,30.60
2022,05,18,08,44,30.60
2022,05,18,08,45,27.40
2022,05,18,08,46,41.80
2022,05,18,08,47,37.00
2022,05,18,08,48,32.20
2022,05,18,08,49,27.40
2022,05,18,08,50,30.60
2022,05,18,08,51,33.80
2022,05,18,08,52,38.60
2022,05,18,08,53,46.70
2022,05,18,08,54,46.70
2022,05,18,08,55,46.70
2022,05,18,08,56,48.30
2022,05,18,08,57,33.80
2022,05,18,08,58,56.30
2022,05,18,08,59,30.60
2022,05,18,09,00,29.00
2022,05,18,09,01,40.20
2022,05,18,09,02,32.20
2022,05,18,09,03,45.10
2022,05,18,09,04,45.10
2022,05,18,09,05,37.00
2022,05,18,09,06,51.50
2022,05,18,09,07,41.80
2022,05,18,09,08,45.10
2022,05,18,09,09,51.50
2022,05,18,09,10,32.20
2022,05,18,09,11,37.00
2022,05,18,09,12,46.70
2022,05,18,09,13,45.10
2022,05,18,09,14,27.40
2022,05,18,09,15,40.20
2022,05,18,09,16,38.60
2022,05,18,09,17,33.80
2022,05,18,09,18,46.70
2022,05,18,09,19,40.20
2022,05,18,09,20,32.20
2022,05,18,09,21,29.00
2022,05,18,09,22,30.60
2022,05,18,09,23,29.00
2022,05,18,09,24,43.50
2022,05,18,09,25,49.90
2022,05,18,09,26,45.10
2022,05,18,09,27,35.40
2022,05,18,09,28,49.90
2022,05,18,09,29,38.60
2022,05,18,09,30,35.40
2022,05,18,09,31,37.00
2022,05,18,09,32,29.00
2022,05,18,09,33,35.40
2022,05,18,09,34,33.80
2022,05,18,09,35,51.50
2022,05,18,09,36,37.00
2022,05,18,09,37,35.40
2022,05,18,09,38,46.70
2022,05,18,09,39,43.50
2022,05,18,09,40,41.80
2022,05,18,09,41,41.80
2022,05,18,09,42,51.50
2022,05,18,09,43,20.90
2022,05,18,09,44,30.60
2022,05,18,09,45,45.10
2022,05,18,09,46,53.10
2022,05,18,09,47,29.00
2022,05,18,09,48,48.30
2022,05,18,09,49,49.90
2022,05,18,09,50,43.50
2022,05,18,09,51,49.90
2022,05,18,09,52,53.10
2022,05,18,09,53,49.90
2022,05,18,09,54,29.00
2022,05,18,09,55,40.20
2022,05,18,09,56,27.40
2022,05,18,09,57,57.90
2022,05,18,09,58,49.90
2022,05,18,09,59,45.10
2022,05,18,10,00,43.50
2022,05,18,10,01,51.50
2022,05,18,10,02,38.60
2022,05,18,10,03,48.30
2022,05,18,10,04,46.70
2022,05,18,10,05,43.50
2022,05,18,10,06,45.10
2022,05,18,10,07,51.50
2022,05,18,10,08,37.00
2022,05,18,10,09,45.10
2022,05,18,10,10,40.20
2022,05,18,10,11,48.30
2022,05,18,10,12,54.70
2022,05,18,10,13,57.90
2022,05,18,10,14,48.30
2022,05,18,10,15,48.30
2022,05,18,10,16,43.50
2022,05,18,10,17,53.10
2022,05,18,10,18,54.70
2022,05,18,10,19,59.50
2022,05,18,10,20,49.90
2022,05,18,10,21,56.30
2022,05,18,10,22,33.80
2022,05,18,10,23,51.50
2022,05,18,10,24,57.90
2022,05,18,10,25,33.80
2022,05,18,10,26,43.50
2022,05,18,10,27,46.70
2022,05,18,10,28,32.20
2022,05,18,10,29,43.50
2022,05,18,10,30,40.20
2022,05,18,10,31,57.90
2022,05,18,10,32,43.50
2022,05,18,10,33,53.10
2022,05,18,10,34,49.90
2022,05,18,10,35,35.40
2022,05,18,10,36,41.80
2022,05,18,10,37,35.40
2022,05,18,10,38,37.00
2022,05,18,10,39,45.10
2022,05,18,10,40,38.60
2022,05,18,10,41,48.30
2022,05,18,10,42,33.80
2022,05,18,10,43,37.00
2022,05,18,10,44,32.20
2022,05,18,10,45,48.30
2022,05,18,10,46,49.90
2022,05,18,10,47,46.70
2022,05,18,10,48,27.40
2022,05,18,10,49,38.60
2022,05,18,10,50,29.00
2022,05,18,10,51,37.00
2022,05,18,10,52,29.00
2022,05,18,10,53,53.10
2022,05,18,10,54,43.50
2022,05,18,10,55,41.80
2022,05,18,10,56,43.50
2022,05,18,10,57,37.00
2022,05,18,10,58,49.90
2022,05,18,10,59,40.20
2022,05,18,11,00,25.70
2022,05,18,11,01,25.70
2022,05,18,11,02,35.40
2022,05,18,11,03,45.10
2022,05,18,11,04,49.90
2022,05,18,11,05,51.50
2022,05,18,11,06,66.00
2022,05,18,11,07,53.10
2022,05,18,11,08,48.30
2022,05,18,11,09,40.20
2022,05,18,11,10,38.60
2022,05,18,11,11,46.70
2022,05,18,11,12,57.90
2022,05,18,11,13,48.30
2022,05,18,11,14,51.50
2022,05,18,11,15,45.10
2022,05,18,11,16,53.10
2022,05,18,11,17,45.10
2022,05,18,11,18,45.10
2022,05,18,11,19,48.30
2022,05,18,11,20,45.10
2022,05,18,11,21,48.30
2022,05,18,11,22,33.80
2022,05,18,11,23,43.50
2022,05,18,11,24,48.30
2022,05,18,11,25,30.60
2022,05,18,11,26,46.70
2022,05,18,11,27,41.80
2022,05,18,11,28,56.30
2022,05,18,11,29,53.10
2022,05,18,11,30,49.90
2022,05,18,11,31,46.70
2022,05,18,11,32,49.90
2022,05,18,11,33,53.10
2022,05,18,11,34,43.50
2022,05,18,11,35,35.40
2022,05,18,11,36,45.10
2022,05,18,11,37,37.00
2022,05,18,11,38,38.60
2022,05,18,11,39,49.90
2022,05,18,11,40,56.30
2022,05,18,11,41,45.10
2022,05,18,11,42,45.10
2022,05,18,11,43,33.80
2022,05,18,11,44,30.60
2022,05,18,11,45,48.30
2022,05,18,11,46,51.50
2022,05,18,11,47,46.70
2022,05,18,11,48,43.50
2022,05,18,11,49,41.80
2022,05,18,11,50,43.50
2022,05,18,11,51,40.20
2022,05,18,11,52,40.20
2022,05,18,11,53,32.20
2022,05,18,11,54,49.90
2022,05,18,11,55,41.80
2022,05,18,11,56,49.90
2022,05,18,11,57,22.50
2022,05,18,11,58,32.20
2022,05,18,11,59,45.10
2022,05,18,12,00,57.90
2022,05,18,12,01,48.30
2022,05,18,12,02,38.60
2022,05,18,12,03,29.00
2022,05,18,12,04,53.10
2022,05,18,12,05,56.30
2022,05,18,12,06,32.20
2022,05,18,12,07,30.60
2022,05,18,12,08,49.90
2022,05,18,12,09,49.90
2022,05,18,12,10,51.50
2022,05,18,12,11,43.50
2022,05,18,12,12,38.60
2022,05,18,12,13,33.80
2022,05,18,12,14,46.70
2022,05,18,12,15,54.70
2022,05,18,12,16,37.00
2022,05,18,12,17,48.30
2022,05,18,12,18,49.90
2022,05,18,12,19,37.00
2022,05,18,12,20,37.00
2022,05,18,12,21,40.20
2022,05,18,12,22,46.70
2022,05,18,12,23,27.40
2022,05,18,12,24,38.60
2022,05,18,12,25,48.30
2022,05,18,12,26,48.30
2022,05,18,12,27,56.30
2022,05,18,12,28,53.10
2022,05,18,12,29,25.70
2022,05,18,12,30,22.50
2022,05,18,12,31,29.00
2022,05,18,12,32,35.40
2022,05,18,12,33,27.40
2022,05,18,12,34,53.10
2022,05,18,12,35,40.20
2022,05,18,12,36,30.60
2022,05,18,12,37,30.60
2022,05,18,12,38,32.20
2022,05,18,12,39,43.50
2022,05,18,12,40,45.10
2022,05,18,12,41,40.20
2022,05,18,12,42,38.60
2022,05,18,12,43,29.00
2022,05,18,12,44,37.00
2022,05,18,12,45,30.60
2022,05,18,12,46,33.80
2022,05,18,12,47,40.20
2022,05,18,12,48,38.60
2022,05,18,12,49,38.60
2022,05,18,12,50,40.20
2022,05,18,12,51,25.70
2022,05,18,12,52,19.30
2022,05,18,12,53,41.80
2022,05,18,12,54,37.00
2022,05,18,12,55,38.60
2022,05,18,12,56,32.20
2022,05,18,12,57,43.50
2022,05,18,12,58,35.40
2022,05,18,12,59,40.20
2022,05,18,13,00,41.80
2022,05,18,13,01,37.00
2022,05,18,13,02,33.80
2022,05,18,13,03,51.50
2022,05,18,13,04,37.00
2022,05,18,13,05,38.60
2022,05,18,13,06,33.80
2022,05,18,13,07,37.00
2022,05,18,13,08,49.90
2022,05,18,13,09,41.80
2022,05,18,13,10,41.80
2022,05,18,13,11,53.10
2022,05,18,13,12,30.60
2022,05,18,13,13,51.50
2022,05,18,13,14,48.30
2022,05,18,13,15,49.90
2022,05,18,13,16,30.60
2022,05,18,13,17,48.30
2022,05,18,13,18,53.10
2022,05,18,13,19,45.10
2022,05,18,13,20,54.70
2022,05,18,13,21,56.30
2022,05,18,13,22,53.10
2022,05,18,13,23,46.70
2022,05,18,13,24,57.90
2022,05,18,13,25,40.20
2022,05,18,13,26,37.00
2022,05,18,13,27,46.70
2022,05,18,13,28,45.10
2022,05,18,13,29,41.80
2022,05,18,13,30,35.40
2022,05,18,13,31,37.00
2022,05,18,13,32,53.10
2022,05,18,13,33,51.50
2022,05,18,13,34,51.50
2022,05,18,13,35,57.90
2022,05,18,13,36,59.50
2022,05,18,13,37,48.30
2022,05,18,13,38,57.90
2022,05,18,13,39,49.90
2022,05,18,13,40,43.50
2022,05,18,13,41,56.30
2022,05,18,13,42,43.50
2022,05,18,13,43,56.30
2022,05,18,13,44,41.80
2022,05,18,13,45,49.90
2022,05,18,13,46,45.10
2022,05,18,13,47,57.90
2022,05,18,13,48,49.90
2022,05,18,13,49,49.90
2022,05,18,13,50,53.10
2022,05,18,13,51,33.80
2022,05,18,13,52,49.90
2022,05,18,13,53,46.70
2022,05,18,13,54,43.50
2022,05,18,13,55,49.90
2022,05,18,13,56,41.80
2022,05,18,13,57,43.50
2022,05,18,13,58,57.90
2022,05,18,13,59,49.90
2022,05,18,14,00,53.10
2022,05,18,14,01,49.90
2022,05,18,14,02,38.60
2022,05,18,14,03,38.60
2022,05,18,14,04,56.30
2022,05,18,14,05,48.30
2022,05,18,14,06,56.30
2022,05,18,14,07,35.40
2022,05,18,14,08,53.10
2022,05,18,14,09,57.90
2022,05,18,14,10,51.50
2022,05,18,14,11,61.20
2022,05,18,14,12,54.70
2022,05,18,14,13,38.60
2022,05,18,14,14,48.30
2022,05,18,14,15,45.10
2022,05,18,14,16,53.10
2022,05,18,14,17,49.90
2022,05,18,14,18,53.10
2022,05,18,14,19,51.50
2022,05,18,14,20,40.20
2022,05,18,14,21,49.90
2022,05,18,14,22,54.70
2022,05,18,14,23,29.00
2022,05,18,14,24,56.30
2022,05,18,14,25,57.90
2022,05,18,14,26,49.90
2022,05,18,14,27,49.90
2022,05,18,14,28,32.20
2022,05,18,14,29,41.80
2022,05,18,14,30,43.50
2022,05,18,14,31,53.10
2022,05,18,14,32,49.90
2022,05,18,14,33,48.30
2022,05,18,14,34,37.00
2022,05,18,14,35,33.80
2022,05,18,14,36,33.80
2022,05,18,14,37,45.10
2022,05,18,14,38,46.70
2022,05,18,14,39,35.40
2022,05,18,14,40,54.70
2022,05,18,14,41,54.70
2022,05,18,14,42,45.10
2022,05,18,14,43,43.50
2022,05,18,14,44,53.10
2022,05,18,14,45,54.70
2022,05,18,14,46,62.70
2022,05,18,14,47,53.10
2022,05,18,14,48,51.50
2022,05,18,14,49,49.90
2022,05,18,14,50,51.50
2022,05,18,14,51,25.70
2022,05,18,14,52,49.90
2022,05,18,14,53,49.90
2022,05,18,14,54,46.70
2022,05,18,14,55,53.10
2022,05,18,14,56,54.70
2022,05,18,14,57,40.20
2022,05,18,14,58,38.60
2022,05,18,14,59,48.30
2022,05,18,15,00,53.10
2022,05,18,15,01,48.30
2022,05,18,15,02,46.70
2022,05,18,15,03,41.80
2022,05,18,15,04,53.10
2022,05,18,15,05,54.70
2022,05,18,15,06,40.20
2022,05,18,15,07,41.80
2022,05,18,15,08,51.50
2022,05,18,15,09,41.80
2022,05,18,15,10,37.00
2022,05,18,15,11,35.40
2022,05,18,15,12,38.60
2022,05,18,15,13,53.10
2022,05,18,15,14,35.40
2022,05,18,15,15,48.30
2022,05,18,15,16,37.00
2022,05,18,15,17,51.50
2022,05,18,15,18,38.60
2022,05,18,15,19,51.50
2022,05,18,15,20,43.50
2022,05,18,15,21,51.50
2022,05,18,15,22,25.70
2022,05,18,15,23,41.80
2022,05,18,15,24,43.50
2022,05,18,15,25,46.70
2022,05,18,15,26,46.70
2022,05,18,15,27,38.60
2022,05,18,15,28,49.90
2022,05,18,15,29,53.10
2022,05,18,15,30,45.10
2022,05,18,15,31,40.20
2022,05,18,15,32,45.10
2022,05,18,15,33,33.80
2022,05,18,15,34,43.50
2022,05,18,15,35,37.00
2022,05,18,15,36,43.50
2022,05,18,15,37,30.60
2022,05,18,15,38,38.60
2022,05,18,15,39,43.50
2022,05,18,15,40,38.60
2022,05,18,15,41,51.50
2022,05,18,15,42,51.50
2022,05,18,15,43,64.40
2022,05,18,15,44,43.50
2022,05,18,15,45,48.30
2022,05,18,15,46,48.30
2022,05,18,15,47,61.20
2022,05,18,15,48,53.10
2022,05,18,15,49,53.10
2022,05,18,15,50,49.90
2022,05,18,15,51,46.70
2022,05,18,15,52,59.50
2022,05,18,15,53,51.50
2022,05,18,15,54,54.70
2022,05,18,15,55,57.90
2022,05,18,15,56,46.70
2022,05,18,15,57,64.40
2022,05,18,15,58,38.60
2022,05,18,15,59,37.00
2022,05,18,16,00,40.20
2022,05,18,16,01,62.70
2022,05,18,16,02,46.70
2022,05,18,16,03,51.50
2022,05,18,16,04,48.30
2022,05,18,16,05,56.30
2022,05,18,16,06,61.20
2022,05,18,16,07,53.10
2022,05,18,16,08,46.70
2022,05,18,16,09,57.90
2022,05,18,16,10,53.10
2022,05,18,16,11,53.10
2022,05,18,16,12,46.70
2022,05,18,16,13,57.90
2022,05,18,16,14,59.50
2022,05,18,16,15,59.50
2022,05,18,16,16,62.70
2022,05,18,16,17,38.60
2022,05,18,16,18,59.50
2022,05,18,16,19,51.50
2022,05,18,16,20,37.00
2022,05,18,16,21,54.70
2022,05,18,16,22,51.50
2022,05,18,16,23,46.70
2022,05,18,16,24,48.30
2022,05,18,16,25,41.80
2022,05,18,16,26,57.90
2022,05,18,16,27,51.50
2022,05,18,16,28,53.10
2022,05,18,16,29,46.70
2022,05,18,16,30,48.30
2022,05,18,16,31,43.50
2022,05,18,16,32,59.50
2022,05,18,16,33,37.00
2022,05,18,16,34,45.10
2022,05,18,16,35,53.10
2022,05,18,16,36,38.60
2022,05,18,16,37,45.10
2022,05,18,16,38,57.90
2022,05,18,16,39,57.90
2022,05,18,16,40,49.90
2022,05,18,16,41,53.10
2022,05,18,16,42,40.20
2022,05,18,16,43,48.30
2022,05,18,16,44,41.80
2022,05,18,16,45,53.10
2022,05,18,16,46,51.50
2022,05,18,16,47,41.80
2022,05,18,16,48,40.20
2022,05,18,16,49,41.80
2022,05,18,16,50,51.50
2022,05,18,16,51,37.00
2022,05,18,16,52,35.40
2022,05,18,16,53,41.80
2022,05,18,16,54,38.60
2022,05,18,16,55,53.10
2022,05,18,16,56,49.90
2022,05,18,16,57,53.10
2022,05,18,16,58,53.10
2022,05,18,16,59,43.50
2022,05,18,17,00,45.10
2022,05,18,17,01,53.10
2022,05,18,17,02,46.70
2022,05,18,17,03,43.50
2022,05,18,17,04,56.30
2022,05,18,17,05,54.70
2022,05,18,17,06,40.20
2022,05,18,17,07,53.10
2022,05,18,17,08,53.10
2022,05,18,17,09,48.30
2022,05,18,17,10,59.50
2022,05,18,17,11,59.50
2022,05,18,17,12,54.70
2022,05,18,17,13,61.20
2022,05,18,17,14,38.60
2022,05,18,17,15,49.90
2022,05,18,17,16,48.30
2022,05,18,17,17,38.60
2022,05,18,17,18,41.80
2022,05,18,17,19,64.40
2022,05,18,17,20,56.30
2022,05,18,17,21,41.80
2022,05,18,17,22,40.20
2022,05,18,17,23,29.00
2022,05,18,17,24,32.20
2022,05,18,17,25,45.10
2022,05,18,17,26,48.30
2022,05,18,17,27,38.60
2022,05,18,17,28,45.10
2022,05,18,17,29,32.20
2022,05,18,17,30,59.50
2022,05,18,17,31,53.10
2022,05,18,17,32,40.20
2022,05,18,17,33,66.00
2022,05,18,17,34,66.00
2022,05,18,17,35,43.50
2022,05,18,17,36,74.00
2022,05,18,17,37,51.50
2022,05,18,17,38,35.40
2022,05,18,17,39,48.30
2022,05,18,17,40,30.60
2022,05,18,17,41,40.20
2022,05,18,17,42,38.60
2022,05,18,17,43,54.70
2022,05,18,17,44,57.90
2022,05,18,17,45,62.70
2022,05,18,17,46,61.20
2022,05,18,17,47,51.50
2022,05,18,17,48,53.10
2022,05,18,17,49,61.20
2022,05,18,17,50,46.70
2022,05,18,17,51,61.20
2022,05,18,17,52,53.10
2022,05,18,17,53,56.30
2022,05,18,17,54,49.90
2022,05,18,17,55,40.20
2022,05,18,17,56,45.10
2022,05,18,17,57,46.70
2022,05,18,17,58,38.60
2022,05,18,17,59,49.90
2022,05,18,18,00,57.90
2022,05,18,18,01,51.50
2022,05,18,18,02,54.70
2022,05,18,18,03,46.70
2022,05,18,18,04,48.30
2022,05,18,18,05,43.50
2022,05,18,18,06,61.20
2022,05,18,18,07,48.30
2022,05,18,18,08,59.50
2022,05,18,18,09,48.30
2022,05,18,18,10,33.80
2022,05,18,18,11,49.90
2022,05,18,18,12,48.30
2022,05,18,18,13,48.30
2022,05,18,18,14,70.80
2022,05,18,18,15,35.40
2022,05,18,18,16,33.80
2022,05,18,18,17,66.00
2022,05,18,18,18,53.10
2022,05,18,18,19,46.70
2022,05,18,18,20,51.50
2022,05,18,18,21,48.30
2022,05,18,18,22,54.70
2022,05,18,18,23,57.90
2022,05,18,18,24,35.40
2022,05,18,18,25,51.50
2022,05,18,18,26,53.10
2022,05,18,18,27,53.10
2022,05,18,18,28,45.10
2022,05,18,18,29,53.10
2022,05,18,18,30,53.10
2022,05,18,18,31,61.20
2022,05,18,18,32,54.70
2022,05,18,18,33,45.10
2022,05,18,18,34,30.60
2022,05,18,18,35,29.00
2022,05,18,18,36,53.10
2022,05,18,18,37,45.10
2022,05,18,18,38,27.40
2022,05,18,18,39,48.30
2022,05,18,18,40,56.30
2022,05,18,18,41,49.90
2022,05,18,18,42,57.90
2022,05,18,18,43,61.20
2022,05,18,18,44,45.10
2022,05,18,18,45,45.10
2022,05,18,18,46,40.20
2022,05,18,18,47,35.40
2022,05,18,18,48,40.20
2022,05,18,18,49,35.40
2022,05,18,18,50,41.80
2022,05,18,18,51,57.90
2022,05,18,18,52,48.30
2022,05,18,18,53,49.90
2022,05,18,18,54,46.70
2022,05,18,18,55,57.90
2022,05,18,18,56,49.90
2022,05,18,18,57,33.80
2022,05,18,18,58,46.70
2022,05,18,18,59,53.10
2022,05,18,19,00,41.80
2022,05,18,19,01,48.30
2022,05,18,19,02,48.30
2022,05,18,19,03,38.60
2022,05,18,19,04,32.20
2022,05,18,19,05,29.00
2022,05,18,19,06,40.20
2022,05,18,19,07,43.50
2022,05,18,19,08,57.90
2022,05,18,19,09,37.00
2022,05,18,19,10,46.70
2022,05,18,19,11,49.90
2022,05,18,19,12,43.50
2022,05,18,19,13,32.20
2022,05,18,19,14,53.10
2022,05,18,19,15,53.10
2022,05,18,19,16,61.20
2022,05,18,19,17,43.50
2022,05,18,19,18,29.00
2022,05,18,19,19,32.20
2022,05,18,19,20,51.50
2022,05,18,19,21,40.20
2022,05,18,19,22,35.40
2022,05,18,19,23,49.90
2022,05,18,19,24,53.10
2022,05,18,19,25,49.90
2022,05,18,19,26,48.30
2022,05,18,19,27,51.50
2022,05,18,19,28,30.60
2022,05,18,19,29,43.50
2022,05,18,19,30,32.20
2022,05,18,19,31,29.00
2022,05,18,19,32,29.00
2022,05,18,19,33,32.20
2022,05,18,19,34,29.00
2022,05,18,19,35,43.50
2022,05,18,19,36,29.00
2022,05,18,19,37,40.20
2022,05,18,19,38,45.10
2022,05,18,19,39,29.00
2022,05,18,19,40,45.10
2022,05,18,19,41,29.00
2022,05,18,19,42,30.60
2022,05,18,19,43,37.00
2022,05,18,19,44,25.70
2022,05,18,19,45,27.40
2022,05,18,19,46,22.50
2022,05,18,19,47,25.70
2022,05,18,19,48,20.90
2022,05,18,19,49,29.00
2022,05,18,19,50,19.30
2022,05,18,19,51,25.70
2022,05,18,19,52,19.30
2022,05,18,19,53,17.70
2022,05,18,19,54,17.70
2022,05,18,19,55,19.30
2022,05,18,19,56,17.70
2022,05,18,19,57,17.70
2022,05,18,19,58,37.00
2022,05,18,19,59,22.50
2022,05,18,20,00,19.30
2022,05,18,20,01,9.60
2022,05,18,20,02,24.20
2022,05,18,20,03,19.30
2022,05,18,20,04,17.70
2022,05,18,20,05,9.60
2022,05,18,20,06,25.70
2022,05,18,20,07,14.50
2022,05,18,20,08,16.10
2022,05,18,20,09,16.10
2022,05,18,20,10,14.50
2022,05,18,20,11,6.40
2022,05,18,20,12,9.60
2022,05,18,20,13,6.40
2022,05,18,20,14,1.60
2022,05,18,20,15,11.30
2022,05,18,20,16,22.50
2022,05,18,20,17,17.70
2022,05,18,20,18,19.30
2022,05,18,20,19,14.50
2022,05,18,20,20,27.40
2022,05,18,20,21,20.90
2022,05,18,20,22,24.20
2022,05,18,20,23,25.70
2022,05,18,20,24,22.50
2022,05,18,20,25,22.50
2022,05,18,20,26,16.10
2022,05,18,20,27,14.50
2022,05,18,20,28,16.10
2022,05,18,20,29,19.30
2022,05,18,20,30,11.30
2022,05,18,20,31,20.90
2022,05,18,20,32,24.20
2022,05,18,20,33,33.80
2022,05,18,20,34,27.40
2022,05,18,20,35,22.50
2022,05,18,20,36,14.50
2022,05,18,20,37,20.90
2022,05,18,20,38,19.30
2022,05,18,20,39,25.70
2022,05,18,20,40,20.90
2022,05,18,20,41,24.20
2022,05,18,20,42,24.20
2022,05,18,20,43,22.50
2022,05,18,20,44,30.60
2022,05,18,20,45,24.20
2022,05,18,20,46,20.90
2022,05,18,20,47,24.20
2022,05,18,20,48,29.00
2022,05,18,20,49,41.80
2022,05,18,20,50,38.60
2022,05,18,20,51,24.20
2022,05,18,20,52,30.60
2022,05,18,20,53,30.60
2022,05,18,20,54,33.80
2022,05,18,20,55,33.80
2022,05,18,20,56,16.10
2022,05,18,20,57,27.40
2022,05,18,20,58,30.60
2022,05,18,20,59,24.20
2022,05,18,21,00,30.60
2022,05,18,21,01,38.60
2022,05,18,21,02,32.20
2022,05,18,21,03,35.40
2022,05,18,21,04,30.60
2022,05,18,21,05,24.20
2022,05,18,21,06,37.00
2022,05,18,21,07,25.70
2022,05,18,21,08,32.20
2022,05,18,21,09,37.00
2022,05,18,21,10,27.40
2022,05,18,21,11,38.60
2022,05,18,21,12,35.40
2022,05,18,21,13,32.20
2022,05,18,21,14,37.00
2022,05,18,21,15,29.00
2022,05,18,21,16,32.20
2022,05,18,21,17,37.00
2022,05,18,21,18,41.80
2022,05,18,21,19,33.80